Location: Hilton Head Island
(32.2163°N, 80.7526°W)
Time: 23:02:52
(UTC-04:00)

Vanguard 2 Rocket - Pass Details

Date: 20 February 2026
Orbit: 553 x 3286 km, 32.9° (Epoch: 13 March)

Event Time Altitude Azimuth Distance (km) Brightness Sun altitude
Rises 10:18:23 0° 224° (SW) 6,773 11.4 35.8°
Reaches altitude 10° 10:22:46 10° 220° (SW) 5,965 11.2 36.4°
Maximum altitude 10:41:38 55° 149° (SSE) 3,673 11.9 39.0°
Drops below altitude 10° 10:58:18 10° 78° (ENE) 5,366 11.2 41.0°
Sets 11:01:57 0° 74° (ENE) 6,087 11.3 41.4°
